Location: Barcelona
(41.3829°N, 2.1774°E)
Time: 14:44:58
(UTC+00:00)

ISS - Pass Details

Date: 12 July 2024
Orbit: 410 x 424 km, 51.6° (Epoch: 14 July)

Event Time Altitude Azimuth Distance (km) Brightness Sun altitude
Rises 22:36:14 0° 295° (WNW) 2,340 0.7 -24.1°
Reaches altitude 10° 22:39:05 10° 322° (NW) 1,480 0.0 -24.3°
Maximum altitude 22:40:57 14° 357° (N) 1,255 -0.5 -24.4°
Drops below altitude 10° 22:42:50 10° 31° (NNE) 1,483 -0.5 -24.5°
Sets 22:45:41 0° 58° (ENE) 2,347 0.2 -24.7°
